sat.trackr.live / text

‹ back to catalog

MICE-1

NORAD 66684 · 2025-276U

PAYLOAD ACTIVE UNKNOWN

§ Identity

Operator
Country
GREC
Launch date
2025-11-28
Launch site
AFWTR
Launch vehicle
Mass (kg)
RCS (m²)

External: N2YO · Heavens-Above · Gunter

§ Orbital elements

Epoch: 2026-05-24T15:55:23.409696Z

Period
94.80 min
Inclination
97.4275°
Eccentricity
0.0007091
Mean motion
15.18988658 rev/d
Perigee alt
504.0 km
Apogee alt
513.8 km
Semi-major
6,887.0 km
B*
1.4998e-4
RAAN
218.6863°
Arg perigee
81.2318°
Mean anomaly
278.9719°
Rev number
2,684

§ Raw data

MICE-11 66684U 25276U   26144.66346539  .00003071  00000+0  14998-3 0  99952 66684  97.4275 218.6863 0007091  81.2318 278.9719 15.18988658 26842

JSON: /api/v1/satellites/66684 · /tle

For live sub-satellite position, see the globe view (requires WebGL).

§ Visibility from observer

Set your observer location to see the next 7 days of passes ≥ 10°. The values pass through the URL so the page stays shareable.

No JS? Fill the form by hand. The geolocation button needs JavaScript.